Simultaneous Nadir Overpasses (SNOs) Predictions

Prediction of SNOs between NOAA-19 and NPP Satellite Orbit:

Table of predicted SNOs for the next 14.0 days since TLE Epoch: 8/23/2019
Index Date (NOAA-19) Time (NOAA-19) Lat,Lon (NOAA-19) SZA (NOAA-19 ) Date (NPP) Time (NPP) Lat,Lon (NPP) SZA (NPP ) Distance(km) Time Diff (sec)
1 08/29/2019 19:48:09 79.88,-155.81 72.93 08/29/2019 19:49:23 79.91,-155.28 72.86 11.05 74
2 08/29/2019 20:39:03 -79.91, 11.91 107.09 08/29/2019 20:40:08 -79.92, 12.00 107.12 1.76 65
3 08/29/2019 21:30:08 79.92, 179.23 72.93 08/29/2019 21:30:53 79.92, 179.32 72.89 1.63 45
4 08/29/2019 22:21:03 -79.93, -13.35 107.07 08/29/2019 22:21:38 -79.92, -13.41 107.09 1.65 35
5 08/29/2019 23:12:08 79.94, 153.97 72.94 08/29/2019 23:12:23 79.92, 153.91 72.92 2.51 15
6 08/30/2019 00:03:04 -79.93, -38.93 107.05 08/30/2019 00:03:08 -79.92, -38.81 107.06 2.30 4
7 08/30/2019 00:54:09 79.93, 128.40 72.97 08/30/2019 00:53:53 79.92, 128.51 72.95 2.49 16
8 08/30/2019 01:45:03 -79.95, -64.19 107.03 08/30/2019 01:44:37 -79.93, -64.21 107.03 2.19 26
9 08/30/2019 02:36:09 79.93, 102.83 72.99 08/30/2019 02:35:23 79.95, 102.81 73.04 2.99 46
10 08/30/2019 03:27:04 -79.94, -89.76 107.01 08/30/2019 03:26:07 -79.93, -89.61 107.00 3.09 57




NCC Satellite Simultaneous Nadir Overpasses (SNOs) Prediction Service
